Regional Weather Roundup
Issued by NWS State College, PA

Home | Current Version | Previous Version | Graphics & Text | Print | Product List | Glossary On
Versions: 1 2 3 4 5 6 7 8 9 10 11 12 13 14 15 16 17 18 19 20 21 22 23 24 25 26 27 28 29 30 31 32 33 34 35 36 37 38 39 40 41 42 43 44 45 46 47 48 49 50
000
ASUS41 KCTP 032010
RWRCTP

REGIONAL WEATHER ROUNDUP
NATIONAL WEATHER SERVICE STATE COLLEGE PA
400 PM EDT FRI JUL 03 2015

Note: "fair" indicates few or no clouds below 12,000 feet with no
significant weather and/or obstructions to visibility.

* = STATION THAT DOES NOT REPORT PRECIPITATION /E.G. RAIN...SNOW...ETC/
    THUNDER OR FOG.

PAZ002>004-007>009-013>016-020>023-029>032-032100-
WESTERN PENNSYLVANIA

CITY           SKY/WX    TMP DP  RH WIND       PRES   REMARKS
ERIE           MOSUNNY   71  48  43 NE14      29.95S
MEADVILLE      MOSUNNY   76  52  43 CALM      29.95F
FRANKLIN*      MOSUNNY   75  54  46 SE3       29.96F
NEW CASTLE     FAIR      78  59  52 CALM      29.93F
BEAVER COUNTY  MOSUNNY   77  57  50 SE3       29.93F
BUTLER*        CLOUDY    77  57  50 S5        29.94F
PITTSBURGH INT CLOUDY    78  57  48 E5        29.91F
PITTSBURGH     PTSUNNY   77  54  44 SE8       29.91F
INDIANA*       MOSUNNY   77  59  53 SE8       29.97F
LATROBE        MOSUNNY   77  63  61 SE9       29.94
WASHINGTON CO* NOT AVBL
$$

PAZ004>006-010>012-017>019-024>028-033>037-041-042-045-046-049>053-032100-
CENTRAL PENNSYLVANIA

CITY           SKY/WX    TMP DP  RH WIND       PRES   REMARKS
BRADFORD       PTSUNNY   73  53  49 SE8       29.99S
DUBOIS         MOSUNNY   78  54  43 VRB5      29.97F
CLEARFIELD     MOSUNNY   76  59  55 SW5       29.97F
JOHNSTOWN      PTSUNNY   70  56  61 SE7G17    29.99F
ALTOONA        PTSUNNY   74  59  59 S9        29.99S
STATE COLLEGE  MOSUNNY   75  61  60 SW7       29.98F
WILLIAMSPORT   MOSUNNY   78  57  48 CALM      29.95F
SELINSGROVE    MOSUNNY   80  61  52 S7        29.96F
FT INDIANTOWN  PTSUNNY   78  61  54 VRB6      29.96F
CAPITAL CITY   CLOUDY    78  62  57 E9        29.95F
HARRISBURG     CLOUDY    79  65  62 SE7       29.95F
YORK           CLOUDY    78  63  59 VRB5      29.96F
$$

PAZ038>040-043-044-047-048-054-055-060>062-067>071-032100-
EASTERN PENNSYLVANIA

CITY           SKY/WX    TMP DP  RH WIND       PRES   REMARKS
SCRANTON       MOSUNNY   79  53  40 CALM      29.97F
MOUNT POCONO   MOSUNNY   74  52  46 S6        30.02S
ALLENTOWN      PTSUNNY   81  57  43 VRB6      29.96F
QUAKERTOWN*    MOCLDY    79  59  50 SW5       29.98F
READING        CLOUDY    80  60  50 E5        29.95F
LANCASTER      CLOUDY    76  62  62 S7        29.96F
COATESVILLE    CLOUDY    75  63  64 S3        29.99F
POTTSTOWN      PTSUNNY   78  60  53 S7        29.98F
BLUE BELL      PTSUNNY   79  61  53 CALM      29.97S
DOYLESTOWN     PTSUNNY   77  59  53 CALM      29.97F
WILLOW GROVE   NOT AVBL
NORTH PHILA    PTSUNNY   81  57  43 VRB5      29.98F
PHILADELPHIA   PTSUNNY   80  60  50 S6        29.97S
$$


USA.gov is the U.S. government's official web portal to all federal, state and local government web resources and services.